Torna al catalogo

COSMOS 1341 DEB

LostHEO
NORAD 33530·DEBRIS·🇷🇺 Russia

Lanciato Mar 3, 1982 da Plesetsk Cosmodrome

Loading…

Prossimi Passaggi (prossime 24 ore)

TLE

ObsoletoSource: Space-Track

Epoca: May 24, 2008, 04:31 UTC

1 33530U 82016F   08145.18825257  .00000182  00000-0  10000-3 0  9992
2 33530  65.9543  75.5281 6197605 152.4681 262.9749  1.99208402 13971

Traccia COSMOS 1341 DEB in tempo reale con AllMySat

Download on the App Store